Location: Unspecified
(0.0000°N, 0.0000°E)
Time: 00:57:10
(UTC-01:00)

ISS - Visible Passes

Search period start: 23 November 2017 00:00
Search period end: 03 December 2017 00:00
Orbit: 402 x 407 km, 51.6° (Epoch: 23 November)

Date Brightness Start Highest point End Pass type
(mag) Time Alt. Az. Time Alt. Az. Time Alt. Az.
23 Nov -2.2 04:02:40 10° N 04:05:35 31° NE 04:08:30 10° ESE visible
23 Nov -0.9 17:14:21 10° W 17:15:48 12° NW 17:17:14 10° NNW visible
24 Nov -1.0 03:12:06 10° NNE 03:13:21 12° NE 03:14:42 10° E visible
25 Nov -3.7 03:55:18 19° NW 03:57:23 54° SW 04:00:34 10° SSE visible
26 Nov -2.5 03:05:46 39° E 03:05:46 39° E 03:08:16 10° SE visible
27 Nov -1.7 03:48:50 14° WSW 03:49:09 14° SW 03:50:58 10° SSW visible
28 Nov -1.2 02:59:08 15° S 02:59:08 15° S 02:59:54 10° SSE visible
